Regional Weather Roundup
Issued by NWS

Home | Current Version | Previous Version | Text Only | Print | Product List | Glossary On
Versions: 1 2 3 4 5 6 7 8 9 10 11 12 13 14 15 16 17 18 19 20 21 22 23 24 25 26 27 28 29 30 31 32 33 34 35 36 37 38 39 40 41 42 43 44 45 46 47 48 49 50
000
ASUS43 KBIS 251931
RWRND
NORTH DAKOTA REGIONAL WEATHER ROUNDUP
NATIONAL WEATHER SERVICE EASTERN NORTH DAKOTA/GRAND FORKS ND
100 PM CST SUN FEB 25 2018

  NOTE: "FAIR" INDICATES FEW OR NO CLOUDS BELOW 12,000 FEET WITH NO
  SIGNIFICANT WEATHER AND/OR OBSTRUCTIONS TO VISIBILITY.

NDZ001>003-009>011-017-252000-
...NORTHWEST NORTH DAKOTA...

CITY           SKY/WX    TMP DP  RH WIND       PRES   REMARKS
WILLISTON      FAIR      21  10  62 SW12      29.63F WCI   9
MINOT          FAIR      27  17  66 SW20      29.63R WCI  13
MINOT AFB      FAIR      26  17  68 W17         N/A  WCI  13
$$

NDZ018>021-031>035-040>046-252000-
...SOUTHWEST NORTH DAKOTA...

CITY           SKY/WX    TMP DP  RH WIND       PRES   REMARKS
BISMARCK       FAIR      29  17  61 W13       29.72S WCI  19
DICKINSON      FAIR      26  16  65 W17       29.63F WCI  13
GARRISON         N/A     25  17  72 W12       29.65S WCI  14
HETTINGER      FAIR      24  16  71 W17       29.71S WCI  11
$$

NDZ004>008-012>016-024-026-027-054-252000-
...NORTHEAST NORTH DAKOTA...

CITY           SKY/WX    TMP DP  RH WIND       PRES   REMARKS
GRAND FORKS    PTSUNNY   28  21  75 W15       29.61R WCI  16
GRAND FORKS AF CLOUDY    29  19  67 NW13      29.60R WCI  18
DEVILS LAKE    PTSUNNY   24  19  81 W16       29.61R WCI  11
$$

NDZ022-023-025-028>030-036>039-047>053-252000-
...SOUTHEAST NORTH DAKOTA...

CITY           SKY/WX    TMP DP  RH WIND       PRES   REMARKS
JAMESTOWN      FAIR      28  19  69 W23G29    29.65S WCI  14
FARGO          PTSUNNY   27  19  72 W17       29.66R WCI  14
WAHPETON       FAIR      27  21  80 W21       29.70R WCI  13
$$




USA.gov is the U.S. government's official web portal to all federal, state and local government web resources and services.